QPF
0.00 0.00 0.00 0.00 0.00 0.00 0.00 0.00 0.00 0.00 0.00 0.00 0.00 0.00 0.00 0.00 0.00 0.00 0.00 0.00 0.00 0.00 0.00 0.00 0.00 0.00 0.00 0.00 0.00 0.00 0.00 0.00 0.00 0.00 0.00 0.00 0.00 0.00 0.00 0.00 0.00 0.00 0.00 0.00 0.00
0.00 0.00 0.00 0.00 0.00 0.00 0.00 0.00 0.00 0.00 0.00 0.00 0.00 0.00 0.00 0.00 0.00 0.00 0.00 0.00 0.00 0.00 0.00 0.00 0.00 0.00 0.00 0.00 0.00 0.00 0.00 0.00 0.00 0.00 0.00 0.00 0.00 0.00 0.00 0.00 0.00 0.00 0.00 0.00 0.00
0.00 0.00 0.00 0.00 0.00 0.00 0.00 0.00 0.00 0.00 0.00 0.00 0.00 0.00 0.00 0.00 0.00 0.00 0.00 0.00 0.00 0.00 0.00 0.00 0.00 0.00 0.00 0.00 0.00 0.00 0.00 0.00 0.00 0.00 0.00 0.00 0.00 0.00 0.00 0.00 0.00 0.00 0.00 0.00 0.00
0.00 0.00 0.00 0.00 0.00 0.00 0.00 0.00 0.00 0.00 0.00 0.00 0.00 0.00 0.00 0.00 0.00 0.00 0.00 0.00 0.00 0.00 0.00 0.00 0.00 0.00 0.00 0.00 0.00 0.00 0.00 0.00 0.00 0.00 0.00 0.00 0.00 0.00 0.00 0.00 0.00 0.00 0.00 0.00 0.00
0.00 0.00 0.00 0.00 0.00 0.00 0.00 0.00 0.00 0.00 0.00 0.00 0.00 0.00 0.00 0.00 0.00 0.00 0.00 0.00 0.00 0.00 0.00 0.00 0.00 0.00 0.00 0.00 0.00 0.00 0.00 0.00 0.00 0.00 0.00 0.00 0.00 0.00 0.00 0.00 0.00 0.00 0.00 0.00 0.00
0.00 0.00 0.00 0.00 0.00 0.00 0.00 0.00 0.00 0.00 0.00 0.00 0.00 0.00 0.00 0.00 0.00 0.00 0.00 0.00 0.00 0.00 0.00 0.00 0.00 0.00 0.00 0.00 0.00 0.00 0.00 0.00 0.00 0.00 0.00 0.00 0.00 0.00 0.00 0.00 0.00 0.00 0.00 0.00 0.00
0.00 0.00 0.00 0.00 0.00 0.00 0.00 0.00 0.00 0.00 0.00 0.00 0.00 0.00 0.00 0.00 0.00 0.00 0.00 0.00 0.00 0.00 0.00 0.00 0.00 0.00 0.00 0.00 0.00 0.00 0.00 0.00 0.00 0.00 0.00 0.00 0.00 0.00 0.00 0.00 0.00 0.00 0.00 0.00 0.00
0.00 0.00 0.00 0.00 0.00 0.00 0.00 0.00 0.00 0.00 0.00 0.00 0.00 0.00 0.00 0.00 0.00 0.00 0.00 0.00 0.00 0.00 0.00 0.00 0.00 0.00 0.00 0.00 0.00 0.00 0.00 0.00 0.00 0.00 0.00 0.00 0.00 0.00 0.00 0.00 0.00 0.00 0.00 0.00 0.00
0.00 0.00 0.00 0.00 0.00 0.00 0.00 0.00 0.00 0.00 0.00 0.00 0.00 0.00 0.00 0.00 0.00 0.00 0.00 0.00 0.00 0.00 0.00 0.00 0.00 0.00 0.00 0.00 0.00 0.00 0.00 0.00 0.00 0.00 0.00 0.00 0.00 0.00 0.00 0.00 0.00 0.00 0.00 0.00 0.00
0.00 0.00 0.00 0.00 0.00 0.00 0.00 0.00 0.00 0.00 0.00 0.00 0.00 0.00 0.00 0.00 0.00 0.00 0.00 0.00 0.00 0.00 0.00 0.00 0.00 0.00 0.00 0.00 0.00 0.00 0.00 0.00 0.00 0.00 0.00 0.00 0.00 0.00 0.00 0.00 0.00 0.00 0.00 0.00 0.00
0.00 0.00 0.00 0.00 0.00 0.00 0.00 0.00 0.00 0.00 0.00 0.00 0.00 0.00 0.00 0.00 0.00 0.00 0.00 0.00 0.00 0.00 0.00 0.00 0.00 0.00 0.00 0.00 0.00 0.00 0.00 0.00 0.00 0.00 0.00 0.00 0.00 0.00 0.00 0.00 0.00 0.00 0.00 0.00 0.00
0.00 0.00 0.00 0.00 0.00 0.00 0.00 0.00 0.00 0.00 0.00 0.00 0.00 0.00 0.00 0.00 0.00 0.00 0.00 0.00 0.00 0.00 0.00 0.00 0.00 0.00 0.00 0.00 0.00 0.00 0.00 0.00 0.00 0.00 0.00 0.00 0.00 0.00 0.00 0.00 0.00 0.00 0.00 0.00 0.00
0.00 0.00 0.00 0.00 0.00 0.00 0.00 0.00 0.00 0.00 0.00 0.00 0.00 0.00 0.00 0.00 0.00 0.00 0.00 0.00 0.00 0.00 0.00 0.00 0.00 0.00 0.00 0.00 0.00 0.00 0.00 0.00 0.00 0.00 0.00 0.00 0.00 0.00 0.00 0.00 0.00 0.00 0.00 0.00 0.00
0.00 0.00 0.00 0.00 0.00 0.00 0.00 0.00 0.00 0.00 0.00 0.00 0.00 0.00 0.00 0.00 0.00 0.00 0.00 0.00 0.00 0.00 0.00 0.00 0.00 0.00 0.00 0.00 0.00 0.00 0.00 0.00 0.00 0.00 0.00 0.00 0.00 0.00 0.00 0.00 0.00 0.00 0.00 0.00 0.00
0.00 0.00 0.00 0.00 0.00 0.00 0.00 0.00 0.00 0.00 0.00 0.00 0.00 0.00 0.00 0.00 0.00 0.00 0.00 0.00 0.00 0.00 0.00 0.00 0.00 0.00 0.00 0.00 0.00 0.00 0.00 0.00 0.00 0.00 0.00 0.00 0.00 0.00 0.00 0.00 0.00 0.00 0.00 0.00 0.00
0.00 0.00 0.00 0.00 0.00 0.00 0.00 0.00 0.00 0.00 0.00 0.00 0.00 0.00 0.00 0.00 0.00 0.00 0.00 0.00 0.00 0.00 0.00 0.00 0.00 0.00 0.00 0.00 0.00 0.00 0.00 0.00 0.00 0.00 0.00 0.00 0.00 0.00 0.00 0.00 0.00 0.00 0.00 0.00 0.00
0.00 0.00 0.00 0.00 0.00 0.00 0.00 0.00 0.00 0.00 0.00 0.00 0.00 0.00 0.00 0.00 0.00 0.00 0.00 0.00 0.00 0.00 0.00 0.00 0.00 0.00 0.00 0.00 0.00 0.00 0.00 0.00 0.00 0.00 0.00 0.00 0.00 0.00 0.00 0.00 0.00 0.00 0.00 0.00 0.00
0.00 0.00 0.00 0.00 0.00 0.00 0.00 0.00 0.00 0.00 0.00 0.00 0.00 0.00 0.00 0.00 0.00 0.00 0.00 0.00 0.00 0.00 0.00 0.00 0.00 0.00 0.00 0.00 0.00 0.00 0.00 0.00 0.00 0.00 0.00 0.00 0.00 0.00 0.00 0.00 0.00 0.00 0.00 0.00 0.00
0.00 0.00 0.00 0.00 0.00 0.00 0.00 0.00 0.00 0.00 0.00 0.00 0.00 0.00 0.00 0.00 0.00 0.00 0.00 0.00 0.00 0.00 0.00 0.00 0.00 0.00 0.00 0.00 0.00 0.00 0.00 0.00 0.00 0.00 0.00 0.00 0.00 0.00 0.00 0.00 0.00 0.00 0.00 0.00 0.00
0.00 0.00 0.00 0.00 0.00 0.00 0.00 0.00 0.00 0.00 0.00 0.00 0.00 0.00 0.00 0.00 0.00 0.00 0.00 0.00 0.00 0.00 0.00 0.00 0.00 0.00 0.00 0.00 0.00 0.00 0.00 0.00 0.00 0.00 0.00 0.00 0.00 0.00 0.00 0.00 0.00 0.00 0.00 0.00 0.00
0.00 0.00 0.00 0.00 0.00 0.00 0.00 0.00 0.00 0.00 0.00 0.00 0.00 0.00 0.00 0.00 0.00 0.00 0.00 0.00 0.00 0.00 0.00 0.00 0.00 0.00 0.00 0.00 0.00 0.00 0.00 0.00 0.00 0.00 0.00 0.00 0.00 0.00 0.00 0.00 0.00 0.00 0.00 0.00 0.00
0.00 0.00 0.00 0.00 0.00 0.00 0.00 0.00 0.00 0.00 0.00 0.00 0.00 0.00 0.00 0.00 0.00 0.00 0.00 0.00 0.00 0.00 0.00 0.00 0.00 0.00 0.00 0.00 0.00 0.00 0.00 0.00 0.00 0.00 0.00 0.00 0.00 0.00 0.00 0.00 0.00 0.00 0.00 0.00 0.00
0.00 0.00 0.00 0.00 0.00 0.00 0.00 0.00 0.00 0.00 0.00 0.00 0.00 0.00 0.00 0.00 0.00 0.00 0.00 0.00 0.00 0.00 0.00 0.00 0.00 0.00 0.00 0.00 0.00 0.00 0.00 0.00 0.00 0.00 0.00 0.00 0.00 0.00 0.00 0.00 0.00 0.00 0.00 0.00 0.00
0.00 0.00 0.00 0.00 0.00 0.00 0.00 0.00 0.00 0.00 0.00 0.00 0.00 0.00 0.00 0.00 0.00 0.00 0.00 0.00 0.00 0.00 0.00 0.00 0.00 0.00 0.00 0.00 0.00 0.00 0.00 0.00 0.00 0.00 0.00 0.00 0.00 0.00 0.00 0.00 0.00 0.00 0.00 0.00 0.00
0.00 0.00 0.00 0.00 0.00 0.00 0.00 0.00 0.00 0.00 0.00 0.00 0.00 0.00 0.00 0.00 0.00 0.00 0.00 0.00 0.00 0.00 0.00 0.00 0.00 0.00 0.00 0.00 0.00 0.00 0.00 0.00 0.00 0.00 0.00 0.00 0.00 0.00 0.00 0.00 0.00 0.00 0.00 0.00 0.00
0.00 0.00 0.00 0.00 0.00 0.00 0.00 0.00 0.00 0.00 0.00 0.00 0.00 0.00 0.00 0.00 0.00 0.00 0.00 0.00 0.00 0.00 0.00 0.00 0.00 0.00 0.00 0.00 0.00 0.00 0.00 0.00 0.00 0.00 0.00 0.00 0.00 0.00 0.00 0.00 0.00 0.00 0.00 0.00 0.00
0.00 0.00 0.00 0.00 0.00 0.00 0.00 0.00 0.00 0.00 0.00 0.00 0.00 0.00 0.00 0.00 0.00 0.00 0.00 0.00 0.00 0.00 0.00 0.00 0.00 0.00 0.00 0.00 0.00 0.00 0.00 0.00 0.00 0.00 0.00 0.00 0.00 0.00 0.00 0.00 0.00 0.00 0.00 0.00 0.00
MSLP
1021.59 1021.22 1020.88 1020.54 1020.21 1019.70 1019.28 1018.89 1018.52 1017.96 1017.62 1017.11 1016.69 1016.45 1016.10 1015.71 1015.07 1014.95 1014.07 1011.05 1010.95 1010.84 1011.05 1011.45 1011.51 1011.60 1011.66 1011.85 1012.08 1012.65 1013.65 1013.86 1013.54 1012.91 1012.70 1012.64 1012.44 1012.16 1011.82 1011.55 1011.15 1010.79 1010.37 1010.45 1011.55
1021.72 1021.32 1020.96 1020.57 1020.04 1019.52 1019.17 1018.73 1018.29 1017.87 1017.38 1016.79 1016.50 1016.22 1015.93 1015.69 1015.20 1013.66 1010.00 1010.05 1010.32 1010.61 1011.07 1011.41 1011.69 1011.63 1011.97 1011.93 1012.15 1012.57 1013.27 1012.51 1011.87 1011.75 1012.07 1012.25 1012.28 1012.10 1012.27 1011.71 1010.80 1010.02 1009.74 1010.40 1011.02
1021.90 1021.44 1020.94 1020.43 1019.91 1019.45 1018.97 1018.55 1018.12 1017.63 1017.15 1016.73 1016.46 1016.04 1015.73 1015.54 1014.62 1010.86 1009.08 1009.38 1010.16 1010.61 1010.84 1011.20 1011.54 1011.70 1012.01 1011.91 1011.77 1012.07 1012.10 1011.09 1010.87 1011.18 1011.29 1011.78 1012.16 1012.19 1012.26 1012.18 1010.22 1009.45 1009.93 1010.41 1011.33
1022.06 1021.41 1020.88 1020.41 1019.84 1019.29 1018.76 1018.21 1017.71 1017.27 1016.79 1016.45 1016.16 1015.87 1015.63 1015.45 1013.15 1009.39 1009.16 1008.94 1009.92 1010.62 1010.94 1011.19 1011.59 1011.93 1012.04 1011.89 1011.39 1011.65 1010.83 1010.63 1010.12 1010.30 1010.92 1011.28 1011.41 1011.64 1011.45 1010.03 1009.56 1009.36 1008.88 1009.83 1011.03
1021.99 1021.37 1020.82 1020.25 1019.60 1019.03 1018.47 1017.88 1017.34 1016.97 1016.63 1016.29 1016.04 1015.79 1015.55 1014.79 1011.88 1009.17 1009.23 1009.36 1010.22 1010.69 1010.95 1011.24 1011.59 1011.77 1011.82 1011.53 1011.24 1011.10 1010.38 1010.09 1009.43 1009.84 1009.72 1010.26 1010.49 1010.88 1010.45 1009.87 1010.06 1009.86 1009.55 1010.04 1010.95
1021.91 1021.30 1020.71 1020.04 1019.37 1018.70 1018.08 1017.45 1016.88 1016.47 1016.21 1015.99 1015.82 1015.66 1015.29 1013.60 1009.75 1009.40 1009.64 1009.99 1010.26 1010.50 1010.92 1011.00 1011.10 1011.06 1011.32 1011.19 1010.92 1010.30 1009.97 1009.45 1009.16 1008.90 1009.22 1009.66 1010.43 1010.72 1009.09 1009.57 1009.92 1009.93 1009.64 1010.44 1011.22
1021.66 1021.14 1020.57 1019.90 1019.13 1018.31 1017.54 1016.90 1016.38 1015.96 1015.69 1015.63 1015.46 1015.55 1014.80 1011.36 1009.46 1009.54 1009.61 1009.86 1010.03 1010.26 1010.45 1010.64 1010.66 1010.86 1011.16 1010.93 1010.42 1010.22 1010.18 1009.39 1008.70 1008.90 1009.42 1009.61 1010.90 1010.13 1008.99 1009.24 1009.62 1009.83 1010.64 1011.15 1011.26
1021.57 1020.99 1020.30 1019.61 1018.79 1017.86 1016.95 1016.30 1015.74 1015.19 1015.01 1015.10 1015.13 1015.28 1013.46 1010.04 1009.77 1009.47 1009.44 1009.50 1009.56 1009.84 1010.19 1010.15 1010.39 1010.87 1010.98 1010.68 1010.58 1010.63 1010.59 1010.28 1008.99 1008.71 1008.85 1009.29 1009.38 1008.99 1008.97 1009.28 1009.31 1009.77 1010.76 1010.87 1011.27
1021.58 1020.91 1020.20 1019.39 1018.42 1017.36 1016.38 1015.56 1014.91 1014.40 1014.63 1014.83 1015.13 1014.67 1012.26 1009.66 1009.58 1008.41 1008.72 1008.97 1009.12 1009.54 1010.06 1010.17 1010.33 1010.81 1010.92 1011.32 1011.69 1011.71 1011.22 1010.66 1009.63 1008.75 1009.06 1009.69 1008.73 1008.01 1008.20 1008.70 1009.08 1009.88 1010.22 1010.66 1011.14
1021.47 1020.81 1020.09 1019.15 1018.15 1017.02 1015.99 1014.96 1014.70 1014.71 1014.84 1014.75 1014.29 1014.23 1011.11 1009.49 1008.65 1008.21 1008.19 1008.51 1008.92 1009.36 1009.95 1010.21 1010.69 1011.19 1011.76 1011.89 1012.37 1012.18 1011.67 1011.03 1010.42 1009.00 1008.64 1008.73 1008.12 1007.19 1007.67 1008.35 1008.92 1009.99 1010.15 1010.55 1010.66
1021.48 1020.69 1019.84 1018.92 1017.95 1016.92 1015.90 1014.95 1015.38 1015.13 1014.41 1013.67 1012.88 1011.97 1010.34 1009.25 1008.19 1007.89 1007.89 1008.37 1008.96 1009.52 1010.04 1010.34 1011.13 1011.56 1011.72 1011.86 1011.69 1011.80 1011.75 1011.50 1010.09 1009.25 1009.53 1008.59 1008.18 1007.58 1008.23 1008.78 1009.29 1009.66 1010.06 1010.35 1011.29
1021.43 1020.63 1019.73 1018.77 1017.64 1016.74 1016.56 1016.47 1017.07 1017.28 1015.19 1012.29 1011.14 1010.66 1009.58 1009.63 1009.57 1008.05 1007.75 1008.57 1009.17 1009.81 1010.15 1010.69 1010.70 1010.87 1011.09 1011.31 1011.47 1011.49 1011.42 1010.94 1010.05 1009.13 1009.35 1008.52 1008.51 1007.92 1008.41 1008.56 1008.65 1009.47 1009.83 1010.19 1011.48
1021.31 1020.64 1019.77 1018.52 1017.38 1017.00 1017.68 1016.65 1016.53 1016.63 1015.57 1011.14 1010.04 1009.41 1008.85 1009.35 1009.21 1008.17 1008.00 1008.10 1008.76 1009.72 1010.27 1010.61 1010.31 1010.19 1010.78 1010.94 1011.23 1011.21 1011.20 1010.58 1010.60 1009.55 1009.24 1009.08 1009.49 1009.29 1009.21 1009.26 1009.51 1010.40 1010.51 1011.01 1011.40
1021.43 1020.85 1020.18 1018.80 1017.72 1018.68 1017.32 1016.22 1016.04 1016.01 1015.07 1010.99 1009.26 1008.07 1008.16 1008.21 1008.29 1007.37 1007.50 1008.01 1008.69 1009.23 1010.11 1010.32 1009.73 1009.82 1010.19 1010.46 1010.78 1010.89 1010.14 1010.41 1010.51 1010.60 1010.18 1010.00 1010.86 1010.53 1010.33 1010.31 1010.30 1010.83 1011.31 1011.96 1012.67
1021.42 1020.90 1020.53 1020.13 1019.94 1019.02 1017.02 1016.31 1015.79 1015.55 1014.20 1009.52 1008.35 1007.51 1007.75 1007.77 1007.21 1006.89 1006.64 1007.44 1008.32 1009.00 1009.75 1009.67 1009.38 1009.40 1009.56 1009.44 1010.00 1009.88 1009.84 1010.19 1010.28 1010.63 1010.71 1010.92 1011.47 1011.20 1011.18 1011.11 1010.85 1010.93 1011.67 1012.43 1012.92
1021.24 1020.82 1020.56 1020.24 1020.24 1018.01 1017.14 1016.59 1016.11 1015.86 1012.75 1009.32 1008.15 1007.97 1008.37 1007.87 1007.11 1006.79 1006.74 1007.09 1007.82 1008.72 1009.17 1009.28 1008.85 1008.82 1008.67 1008.60 1009.23 1009.20 1009.71 1010.33 1011.29 1011.43 1011.76 1011.45 1011.74 1011.61 1011.38 1010.62 1010.71 1011.01 1011.51 1012.33 1013.13
1020.93 1020.42 1020.55 1020.26 1018.59 1017.47 1017.27 1016.89 1016.89 1015.43 1012.01 1010.42 1009.36 1008.83 1008.33 1008.11 1007.73 1007.21 1007.46 1007.81 1008.56 1009.27 1009.69 1009.50 1008.93 1008.57 1008.35 1008.36 1008.49 1009.19 1010.46 1011.47 1012.09 1012.55 1012.61 1011.70 1012.05 1010.81 1010.09 1009.68 1009.54 1010.20 1011.00 1011.94 1012.95
1020.41 1019.67 1018.99 1018.33 1017.89 1017.81 1017.59 1017.62 1016.94 1014.22 1012.79 1011.23 1010.53 1009.39 1009.16 1008.65 1008.24 1008.10 1008.20 1008.67 1008.86 1009.30 1010.06 1009.91 1009.01 1008.09 1007.97 1008.05 1008.48 1009.03 1010.22 1011.47 1012.31 1013.03 1012.62 1011.93 1011.33 1010.12 1010.04 1009.24 1009.42 1010.50 1011.98 1012.94 1013.52
1019.89 1019.27 1019.02 1017.35 1017.54 1017.81 1018.05 1018.15 1016.19 1014.54 1013.34 1012.46 1011.18 1010.67 1010.36 1009.91 1009.51 1008.89 1008.88 1008.75 1008.45 1008.72 1009.64 1009.64 1008.99 1007.61 1007.27 1007.28 1007.88 1008.67 1009.64 1010.06 1011.50 1012.83 1012.68 1011.79 1010.79 1010.34 1010.13 1009.78 1010.39 1011.39 1012.56 1013.68 1014.34
1020.86 1020.10 1018.67 1016.89 1017.09 1017.48 1018.34 1017.50 1016.05 1014.57 1013.76 1013.13 1012.75 1012.18 1011.96 1011.49 1010.67 1010.11 1009.30 1008.73 1008.55 1008.64 1008.79 1009.13 1009.05 1007.80 1007.08 1007.21 1007.54 1007.89 1008.76 1010.14 1011.68 1012.57 1013.01 1012.03 1011.10 1010.45 1010.53 1010.65 1011.23 1011.72 1012.42 1013.56 1014.31
1020.99 1020.03 1017.15 1016.86 1017.14 1017.53 1018.13 1017.35 1015.78 1014.62 1014.09 1013.81 1013.51 1013.13 1012.76 1012.39 1011.83 1011.22 1010.24 1009.24 1008.64 1008.79 1008.61 1009.08 1009.50 1007.52 1007.79 1007.59 1007.56 1008.13 1008.72 1010.06 1011.17 1011.91 1012.20 1011.96 1010.97 1008.62 1008.91 1009.62 1010.02 1011.05 1012.00 1012.85 1013.72
1021.34 1020.33 1017.46 1017.32 1017.88 1018.11 1017.93 1016.65 1015.65 1014.59 1014.36 1014.22 1013.79 1013.47 1013.38 1013.10 1012.74 1012.03 1011.01 1009.76 1009.47 1009.36 1009.30 1009.51 1009.88 1009.05 1008.16 1007.22 1007.23 1007.48 1008.00 1009.09 1010.84 1011.41 1011.59 1010.85 1008.96 1007.67 1007.71 1008.23 1009.63 1010.88 1011.66 1012.33 1012.89
1022.15 1020.62 1017.84 1017.32 1018.24 1018.47 1017.49 1016.52 1015.63 1015.14 1014.63 1014.44 1014.07 1013.84 1013.73 1013.89 1013.71 1012.72 1011.65 1010.55 1010.18 1010.00 1009.91 1009.89 1010.50 1010.37 1008.91 1007.81 1007.61 1007.53 1007.61 1008.20 1009.27 1010.05 1010.47 1010.57 1008.47 1007.60 1007.52 1008.66 1009.50 1010.32 1011.06 1011.83 1012.92
1022.90 1021.35 1019.15 1018.18 1017.90 1017.78 1017.66 1016.96 1016.08 1015.21 1014.85 1014.69 1014.36 1014.10 1014.38 1014.45 1014.23 1013.82 1013.10 1011.85 1011.25 1010.89 1010.37 1010.43 1011.03 1010.86 1010.05 1009.24 1008.51 1007.50 1007.03 1007.31 1008.15 1009.37 1009.25 1008.48 1008.09 1007.94 1008.26 1008.45 1009.19 1009.86 1010.44 1011.27 1012.45
1023.14 1022.07 1021.06 1019.61 1019.11 1018.13 1017.48 1017.27 1016.71 1016.02 1015.15 1014.97 1015.05 1015.29 1015.37 1015.69 1015.40 1015.11 1014.90 1014.28 1013.01 1012.01 1011.36 1011.34 1011.35 1010.76 1009.89 1009.25 1008.20 1007.28 1006.68 1006.63 1007.04 1007.20 1008.09 1007.20 1007.38 1006.82 1007.07 1007.54 1007.82 1007.95 1010.17 1011.59 1012.46
1022.92 1022.60 1021.71 1020.61 1019.67 1018.65 1017.93 1017.53 1017.12 1016.78 1016.26 1015.69 1015.91 1016.22 1016.19 1016.41 1016.67 1016.82 1016.46 1016.03 1014.92 1013.28 1013.33 1012.63 1011.92 1011.18 1010.13 1008.88 1007.93 1006.84 1005.91 1005.71 1005.80 1005.92 1006.10 1006.20 1006.27 1005.97 1006.39 1007.48 1008.27 1008.54 1009.58 1010.79 1011.70
1022.70 1022.46 1022.29 1021.06 1020.12 1019.40 1018.34 1018.08 1017.75 1017.53 1017.07 1016.56 1016.56 1016.73 1016.76 1016.86 1017.03 1016.75 1016.27 1015.89 1015.35 1014.91 1014.54 1013.84 1012.74 1011.97 1010.44 1009.30 1008.05 1006.40 1004.26 1004.44 1004.69 1004.57 1004.80 1005.24 1005.34 1006.07 1006.81 1006.81 1007.21 1007.98 1008.67 1009.45 1010.29
Thickness
5701 5705 5709 5713 5717 5722 5727 5731 5735 5740 5743 5747 5752 5754 5757 5761 5766 5766 5768 5797 5798 5801 5798 5793 5791 5788 5790 5784 5789 5783 5748 5739 5755 5761 5773 5779 5777 5789 5799 5791 5797 5802 5809 5815 5806
5697 5701 5705 5710 5716 5721 5725 5730 5735 5738 5743 5748 5752 5754 5757 5759 5762 5768 5806 5804 5803 5801 5793 5784 5779 5784 5770 5776 5777 5764 5743 5762 5778 5780 5772 5777 5777 5780 5780 5784 5793 5806 5819 5813 5810
5692 5697 5702 5708 5714 5719 5724 5728 5733 5738 5743 5747 5750 5754 5757 5759 5763 5786 5810 5809 5803 5799 5797 5790 5785 5780 5766 5772 5775 5768 5760 5785 5789 5786 5785 5779 5778 5782 5774 5767 5793 5797 5802 5808 5803
5688 5694 5700 5705 5711 5717 5722 5727 5733 5738 5743 5747 5750 5753 5756 5758 5750 5803 5808 5810 5803 5798 5793 5786 5778 5765 5758 5758 5774 5767 5782 5786 5792 5791 5783 5782 5790 5783 5782 5795 5806 5811 5822 5817 5804
5687 5693 5698 5703 5709 5715 5721 5727 5733 5737 5741 5745 5748 5750 5754 5754 5767 5806 5806 5805 5798 5793 5785 5779 5770 5764 5755 5761 5770 5768 5780 5787 5797 5793 5796 5794 5790 5789 5792 5804 5806 5812 5818 5813 5809
5684 5689 5695 5701 5708 5714 5720 5726 5732 5737 5740 5744 5746 5748 5752 5742 5798 5801 5801 5797 5794 5789 5782 5779 5772 5773 5766 5765 5766 5779 5783 5788 5797 5799 5797 5790 5786 5792 5807 5807 5802 5805 5810 5806 5804
5683 5688 5693 5699 5706 5713 5720 5727 5732 5737 5740 5742 5745 5745 5746 5759 5797 5798 5798 5795 5793 5789 5780 5781 5782 5774 5771 5764 5779 5780 5770 5782 5799 5798 5785 5791 5771 5780 5805 5805 5800 5800 5796 5797 5800
5678 5684 5691 5697 5704 5712 5721 5728 5734 5739 5741 5742 5743 5742 5742 5788 5790 5791 5792 5792 5795 5792 5785 5787 5785 5775 5771 5778 5770 5765 5760 5749 5785 5796 5794 5791 5764 5794 5804 5800 5799 5800 5792 5795 5797
5674 5680 5687 5694 5702 5712 5722 5730 5736 5740 5739 5738 5737 5740 5742 5786 5779 5795 5795 5786 5791 5788 5782 5787 5782 5767 5770 5752 5737 5738 5735 5749 5765 5795 5790 5776 5774 5801 5806 5802 5798 5794 5796 5796 5794
5670 5676 5683 5691 5699 5710 5720 5729 5732 5732 5732 5733 5738 5731 5758 5768 5784 5793 5795 5791 5781 5778 5771 5768 5758 5748 5738 5733 5710 5729 5736 5742 5748 5775 5777 5772 5779 5806 5803 5800 5800 5789 5795 5795 5796
5664 5671 5679 5688 5696 5706 5716 5722 5716 5720 5728 5731 5738 5740 5755 5773 5787 5785 5789 5781 5776 5767 5745 5756 5737 5728 5737 5741 5746 5745 5738 5734 5757 5772 5767 5770 5772 5791 5791 5790 5790 5790 5792 5794 5787
5658 5665 5673 5683 5693 5701 5704 5704 5698 5698 5703 5739 5747 5749 5762 5763 5750 5770 5786 5762 5755 5738 5748 5740 5729 5744 5751 5749 5745 5744 5737 5740 5757 5773 5766 5772 5773 5793 5788 5793 5799 5795 5795 5794 5784
5652 5658 5666 5678 5688 5691 5686 5697 5698 5701 5700 5732 5749 5748 5756 5757 5745 5754 5770 5763 5752 5736 5736 5725 5742 5753 5746 5740 5738 5738 5737 5740 5741 5761 5770 5768 5757 5768 5782 5787 5792 5786 5790 5790 5786
5645 5651 5657 5670 5679 5669 5682 5694 5697 5700 5679 5719 5737 5752 5756 5757 5745 5767 5771 5759 5748 5734 5734 5730 5747 5746 5740 5736 5737 5721 5750 5751 5747 5745 5725 5759 5716 5749 5762 5767 5776 5778 5776 5775 5772
5639 5644 5648 5652 5654 5661 5680 5686 5692 5693 5656 5737 5739 5762 5752 5748 5755 5757 5774 5759 5736 5738 5735 5732 5742 5736 5732 5742 5745 5740 5753 5747 5750 5741 5738 5741 5720 5732 5750 5755 5764 5771 5771 5767 5767
5635 5640 5642 5647 5646 5666 5674 5678 5683 5655 5653 5713 5734 5731 5728 5739 5747 5756 5757 5763 5753 5736 5739 5736 5753 5747 5746 5753 5747 5759 5749 5738 5722 5718 5702 5730 5721 5722 5732 5752 5760 5768 5769 5765 5763
5632 5639 5638 5640 5654 5665 5668 5670 5643 5638 5696 5700 5708 5720 5724 5724 5730 5740 5732 5727 5715 5704 5705 5724 5731 5747 5757 5742 5751 5745 5718 5685 5691 5691 5689 5727 5713 5730 5761 5765 5774 5771 5766 5766 5762
5630 5639 5646 5649 5658 5657 5658 5647 5638 5669 5672 5700 5700 5711 5709 5716 5722 5724 5720 5708 5722 5716 5697 5692 5692 5735 5751 5741 5732 5728 5714 5681 5679 5678 5695 5715 5707 5734 5753 5771 5780 5767 5756 5753 5752
5626 5635 5638 5653 5653 5651 5644 5623 5640 5658 5678 5677 5689 5689 5688 5700 5706 5710 5708 5706 5717 5716 5695 5685 5697 5741 5749 5753 5745 5731 5711 5732 5701 5693 5688 5702 5730 5746 5750 5758 5759 5752 5746 5740 5738
5609 5615 5629 5647 5646 5644 5629 5631 5646 5665 5672 5673 5663 5673 5666 5675 5686 5689 5700 5718 5717 5717 5718 5707 5689 5732 5743 5748 5744 5735 5739 5709 5690 5683 5678 5691 5715 5718 5732 5739 5743 5744 5743 5737 5734
5598 5607 5634 5636 5636 5628 5616 5621 5645 5660 5662 5657 5656 5659 5666 5668 5673 5679 5688 5709 5721 5714 5717 5708 5692 5723 5727 5716 5717 5718 5714 5710 5701 5686 5673 5671 5692 5742 5746 5746 5747 5747 5743 5739 5736
5580 5597 5620 5621 5612 5600 5610 5625 5641 5648 5652 5652 5657 5658 5657 5663 5660 5668 5674 5698 5707 5711 5701 5706 5682 5686 5706 5733 5735 5729 5719 5709 5681 5691 5683 5683 5700 5761 5760 5758 5750 5741 5741 5740 5740
5560 5569 5602 5609 5595 5595 5609 5621 5630 5635 5639 5641 5645 5654 5658 5652 5648 5659 5672 5693 5694 5697 5693 5698 5673 5660 5681 5710 5719 5714 5723 5720 5706 5695 5684 5683 5699 5755 5755 5748 5747 5742 5742 5740 5732
5543 5565 5578 5589 5592 5598 5598 5603 5610 5627 5630 5632 5635 5644 5639 5638 5644 5645 5655 5674 5680 5686 5695 5691 5669 5668 5661 5685 5700 5704 5719 5722 5714 5681 5699 5697 5726 5740 5735 5738 5741 5741 5741 5737 5728
5527 5544 5552 5569 5576 5585 5592 5593 5595 5600 5617 5619 5617 5616 5618 5616 5621 5627 5631 5639 5660 5674 5680 5672 5661 5668 5681 5692 5702 5709 5717 5717 5709 5714 5698 5729 5718 5743 5741 5742 5746 5753 5737 5726 5721
5519 5525 5531 5539 5554 5571 5574 5576 5581 5585 5593 5599 5599 5600 5606 5605 5609 5605 5608 5618 5629 5651 5646 5652 5650 5667 5669 5691 5697 5701 5718 5723 5718 5721 5718 5724 5726 5750 5746 5740 5737 5740 5734 5726 5722
5508 5513 5514 5528 5541 5552 5561 5565 5568 5570 5576 5584 5587 5588 5591 5596 5597 5603 5610 5616 5624 5630 5631 5634 5639 5644 5644 5675 5680 5684 5719 5725 5725 5729 5732 5716 5738 5735 5734 5742 5742 5739 5738 5734 5731